Location: Newark
(60.5925°N, 45.5911°E)
Time: 04:00:58
(UTC+00:00)

ISS - Pass Details

Date: 29 September 2019
Orbit: 411 x 421 km, 51.6° (Epoch: 20 October)

Event Time Altitude Azimuth Distance (km) Brightness Sun altitude
Rises 15:24:19 0° 238° (WSW) 2,345 0.9 -6.6°
Reaches altitude 10° 15:26:51 10° 218° (SW) 1,483 -0.5 -6.9°
Maximum altitude 15:29:09 17° 174° (S) 1,112 -1.7 -7.2°
Drops below altitude 10° 15:31:26 10° 130° (SE) 1,483 -1.5 -7.5°
Enters shadow 15:31:57 - 125° (SE) 1,636 -1.3 -7.5°
